NWS Regional Weather Roundup - New England Area

000
ASUS41 KBOX 200610
RWRBOX

REGIONAL WEATHER ROUNDUP
NATIONAL WEATHER SERVICE BOSTON/NORTON MA
200 AM EDT FRI APR 20 2018

NOTE:  "FAIR" INDICATES FEW OR NO CLOUDS BELOW 12,000 FEET WITH NO
SIGNIFICANT WEATHER AND/OR OBSTRUCTIONS TO VISIBILITY.

MAZALL-200700-
EASTERN MASSACHUSETTS

CITY           SKY/WX    TMP DP  RH WIND       PRES   REMARKS
BOSTON         CLOUDY    39  28  64 NW18      29.85R WCI  30
6HR MIN TEMP:  39; 6HR MAX TEMP:  44;

BEVERLY        CLOUDY    39  28  64 NW14      29.83R WCI  31
LAWRENCE       CLOUDY    40  28  62 W8        29.86R
BEDFORD        CLOUDY    37  28  70 W10       29.85R WCI  30
BLUE HILL        N/A     35  29  78 W13G26    29.82R WCI  26
NORWOOD        CLOUDY    40  30  67 W10G18    29.86R
MARSHFIELD     FAIR      39  32  75 W8G14     29.84R
PLYMOUTH       CLOUDY    39  32  76 W10       29.85R
TAUNTON        CLOUDY    39  29  67 W8        29.86R
NEW BEDFORD    MOCLDY    38  31  76 NW7G16    29.86R
$$

MAZALL-200700-
CAPE COD AND THE ISLANDS

CITY           SKY/WX    TMP DP  RH WIND       PRES   REMARKS
FALMOUTH         N/A     37  32  81 NW10G21   29.85  WCI  30
HYANNIS        CLOUDY    39  34  82 W13G20    29.82R WCI  31
CHATHAM        CLOUDY    40  35  83 NW8       29.83R
PROVINCETOWN   MOCLDY    40  31  70 NW21G28   29.83R WCI  30
NANTUCKET      CLOUDY    40  35  83 NW16G24   29.84R WCI  31
MARTHAS VNYRD  CLOUDY    39  32  76 NW16G24   29.85R WCI  30
$$

MAZALL-200700-
CENTRAL AND WESTERN MASSACHUSETTS

CITY           SKY/WX    TMP DP  RH WIND       PRES   REMARKS
WORCESTER      MOCLDY    32  26  78 W16       29.84S WCI  21
6HR MIN TEMP:  32; 6HR MAX TEMP:  35; 6HR PCP:  0.01;

FITCHBURG      CLOUDY    38  30  73 W10       29.87R WCI  31
ORANGE         FAIR      34  26  72 W12       29.90R WCI  25
SPRINGFIELD    FAIR      35  26  70 NW10      29.91S WCI  27
WESTFIELD      CLOUDY    35  26  69 NW8G20    29.92S WCI  29
NORTH ADAMS    LGT SNOW  31  28  89 W10       29.94S FOG     WCI  22
PITTSFIELD     CLOUDY    30  23  75 W16G23    29.90S WCI  19
$$

RIZALL-200700-
RHODE ISLAND

CITY           SKY/WX    TMP DP  RH WIND       PRES   REMARKS
PROVIDENCE     CLOUDY    38  30  73 NW13      29.89R WCI  30
6HR MIN TEMP:  38; 6HR MAX TEMP:  43; 6HR PCP: TRACE;

NEWPORT        CLOUDY    38  29  70 NW15G24   29.88R WCI  29
BLOCK ISLAND   MOCLDY    38  29  70 NW12G20   29.91S WCI  30
SMITHFIELD     MOCLDY    35  28  75 MISG      29.87R
WESTERLY       FAIR      37  29  72 W6        29.91S
$$

CTZALL-200700-
CONNECTICUT

CITY           SKY/WX    TMP DP  RH WIND       PRES   REMARKS
BRADLEY INTL   CLOUDY    36  24  62 NW17      29.93S WCI  26
6HR MIN TEMP:  36; 6HR MAX TEMP:  41;

HARTFORD       FAIR      37  25  61 NW9       29.95R WCI  30
BRIDGEPORT     FAIR      36  26  67 W8        29.98R WCI  30
DANBURY        FAIR      34  22  61 NW8       29.98S WCI  27
GROTON         FAIR      37  25  61 NW10      29.92S WCI  30
NEW HAVEN      FAIR      38  25  59 NW10      29.97R WCI  31
CHESTER        FAIR      36  23  60 NW9       29.93R WCI  29
MERIDEN        FAIR      36  23  59 NW9       29.95S WCI  29
WILLIMANTIC    FAIR      36  27  69 NW10G17   29.92R WCI  28
OXFORD         FAIR      33  23  66 NW10G17   29.95S WCI  25
$$

MEZ002-015-021-024-NHZ003-005-008-011-012-014-VTZ005-008-200700-
NORTHERN NEW ENGLAND

CITY           SKY/WX    TMP DP  RH WIND       PRES   REMARKS
PORTLAND ME    FAIR      37  30  75 W8        29.78S WCI  31
6HR MIN TEMP:  37; 6HR MAX TEMP:  40;

BANGOR ME      MOCLDY    37  31  78 NW6       29.72S
CONCORD NH     CLOUDY    36  30  79 W7        29.85R WCI  30
MANCHESTER NH  CLOUDY    40  26  57 NW10      29.84R
NASHUA NH      CLOUDY    38  28  67 NW16G23   29.86R WCI  29
PORTSMOUTH NH  CLOUDY    38  29  68 W14       29.80  WCI  30
JAFFREY NH     CLOUDY    33  29  85 VRB5      29.85R WCI  29
KEENE NH       LGT RAIN  34  27  75 NW5       29.90R WCI  30
BURLINGTON VT  FLURRIES  35  27  72 NW9G21    29.93R WCI  28
MT. WASHINGTON SNOW      12  12 100 W43G51      N/A  VSB 0   WCI -12
$$

NYZ052-076-200700-
EASTERN NEW YORK

CITY           SKY/WX    TMP DP  RH WIND       PRES   REMARKS
ALBANY         CLOUDY    33  23  66 W13       29.99R WCI  24
6HR MIN TEMP:  33; 6HR MAX TEMP:  38;

NEW YORK CITY  FAIR      39  23  52 NW20      30.02S WCI  29
6HR MIN TEMP:  39; 6HR MAX TEMP:  45;

$$

ANZALL-200700-
MARINE OBSERVATIONS

STATION/POSITION TIME  TEMP    WIND        PRES    VSBY  WAVE
                       AIR SEA DIR/SP/G                  HT/PER
                 (UTC) (F)     (DEG/KT/KT) (MB)    (MI)  (FT/S)
BOSTON BUOY      0550   41 42  300/ 19/ 23 1008.8R         3/ 3
BUZZARDS BAY     0500   40     310/ 23/ 25 1012.0R
NANTUCKET SOUND  0450   41 43  310/ 19/ 25 1009.2          2/ 3
MASS BAY-STELLWA 0504   40 41              1008.0R         2/ 3
ISLE OF SHOALS   0600   38     280/ 20/ 22 1008.8R
S OF BLOCK IS    0543      41                N/A           6/ 5
$$

......................KEY.........................
  SKY/WX - SKY CONDITION/PRESENT WEATHER
  TMP    - TEMPERATURE IN FAHRENHEIT
  DWPT   - DEWPOINT IN FAHRENHEIT
  RH     - RELATIVE HUMIDITY IN PERCENT
  WIND   - DIRECTION AND SPEED IN MPH
  PRES   - MEAN SEA LEVEL PRESSURE IN INCHES OF HG
  WCI    - WIND CHILL INDEX
  VSB    - VISIBILITY IN MILES
  HX     - HEAT INDEX
  TC     - TEMPERATURE IN CELSIUS
  VRB    - VARIABLE WIND DIRECTION
  N/A    - NOT AVAILABLE

NWS BOX Regional Weather Roundup - New England Area